contact:dominique.lefevre@mio.osupytheas.fr, maurice.libes@osupytheas.fr
Project:EMSO Ligure-ouest http://www.emso-fr.org/EMSO-France
Sensor Aquadopp, line 13 Serial AQD14315 
DOI : "https://doi.org/10.17882/74513; https://doi.org/10.17882/83244" 
Title:EMSO Ligure Ouest : Data ligne ALBATROSS capteur AQUADOPP - deploiement 2021
Id,Date,Profondeur,Latitude,Longitude,X_East,Y_North,Z_Up,Amplitude_X,Amplitude_Y,Amplitude_Z,Batterie,SoundSpeed,Heading,Pitch,Roll,Pressure,Temperature,Speed,Direction
, , m, degrees North, degrees East, m.s-1, m.s-1,m.s-1, 1, 1, 1, Volt, m.s-1, degree, degree, degree, dbar, degree_C, m.s-1, degree
07,2022-08-25T23:30:00,1500.0,42.79,6.0312,0.002,0.004,0.002,44.0,45.0,46.0,12.9,1504.0,35.5,0.0,1.0,1475.104,13.11,0.004,26.6
07,2022-08-26T00:00:00,1500.0,42.79,6.0312,0.007,0.004,-0.006,46.0,50.0,42.0,12.9,1504.0,40.5,-0.1,1.0,1475.033,13.11,0.008,60.3
07,2022-08-26T00:30:00,1500.0,42.79,6.0312,0.013,0.005,-0.01,46.0,50.0,45.0,12.9,1504.0,44.5,0.2,0.7,1475.024,13.11,0.013,69.0
07,2022-08-26T01:00:00,1500.0,42.79,6.0312,0.003,0.012,0.002,47.0,44.0,45.0,12.9,1504.0,51.1,0.1,0.9,1474.982,13.11,0.012,14.0
07,2022-08-26T01:30:00,1500.0,42.79,6.0312,0.007,0.006,-0.003,44.0,53.0,46.0,12.9,1504.0,51.7,0.2,0.7,1475.026,13.11,0.009,49.4
07,2022-08-26T02:00:00,1500.0,42.79,6.0312,0.0,0.003,0.008,45.0,47.0,45.0,12.9,1504.0,49.3,0.2,0.7,1475.042,13.11,0.003,0.0
07,2022-08-26T02:30:00,1500.0,42.79,6.0312,0.003,-0.007,0.012,44.0,44.0,43.0,12.9,1504.0,51.5,0.1,0.7,1475.042,13.11,0.007,156.8
07,2022-08-26T03:00:00,1500.0,42.79,6.0312,-0.004,-0.002,0.01,42.0,48.0,47.0,12.9,1504.0,54.8,-0.1,1.0,1475.01,13.11,0.004,243.4
07,2022-08-26T03:30:00,1500.0,42.79,6.0312,-0.009,-0.011,-0.008,45.0,47.0,45.0,12.9,1504.0,63.3,0.2,0.9,1475.04,13.11,0.014,219.3
07,2022-08-26T04:00:00,1500.0,42.79,6.0312,-0.018,-0.01,0.006,48.0,61.0,49.0,13.0,1504.0,68.0,0.1,0.7,1475.051,13.11,0.02,240.9
07,2022-08-26T04:30:00,1500.0,42.79,6.0312,-0.001,0.0,0.002,40.0,51.0,43.0,12.9,1504.0,70.2,0.0,1.0,1475.1,13.1,0.001,270.0
07,2022-08-26T05:00:00,1500.0,42.79,6.0312,-0.016,-0.011,0.009,53.0,46.0,46.0,12.9,1504.0,75.0,0.0,0.9,1475.097,13.1,0.019,235.5
07,2022-08-26T05:30:00,1500.0,42.79,6.0312,-0.015,-0.001,0.003,45.0,45.0,44.0,12.9,1504.0,73.8,0.2,0.9,1475.103,13.11,0.015,266.2
07,2022-08-26T06:00:00,1500.0,42.79,6.0312,-0.019,-0.006,0.015,47.0,46.0,47.0,12.9,1504.0,71.5,-0.1,1.0,1475.108,13.11,0.019,252.5
07,2022-08-26T06:30:00,1500.0,42.79,6.0312,-0.011,-0.006,0.0,49.0,46.0,47.0,12.9,1504.0,67.8,0.3,1.0,1475.138,13.11,0.012,241.4
07,2022-08-26T07:00:00,1500.0,42.79,6.0312,-0.015,0.014,0.013,44.0,47.0,44.0,12.9,1504.0,65.5,0.2,0.8,1475.131,13.11,0.02,313.0
07,2022-08-26T07:30:00,1500.0,42.79,6.0312,-0.015,0.001,0.005,43.0,44.0,46.0,12.9,1504.0,64.4,0.2,0.9,1475.098,13.11,0.015,273.8
07,2022-08-26T08:00:00,1500.0,42.79,6.0312,-0.017,0.004,-0.007,43.0,44.0,44.0,13.0,1504.0,62.9,0.2,1.0,1475.114,13.11,0.017,283.2
07,2022-08-26T08:30:00,1500.0,42.79,6.0312,-0.014,0.011,-0.003,45.0,42.0,45.0,12.9,1504.0,56.0,0.1,1.0,1475.078,13.11,0.017,308.2
07,2022-08-26T09:00:00,1500.0,42.79,6.0312,-0.011,0.003,-0.009,46.0,45.0,43.0,12.9,1504.0,50.3,0.0,1.0,1475.088,13.11,0.011,285.3
07,2022-08-26T09:30:00,1500.0,42.79,6.0312,-0.017,0.018,-0.017,44.0,44.0,43.0,12.9,1504.0,47.9,-0.1,0.7,1475.065,13.11,0.024,316.6
07,2022-08-26T10:00:00,1500.0,42.79,6.0312,-0.005,0.012,0.002,45.0,45.0,45.0,12.9,1504.0,46.3,0.1,0.7,1475.053,13.11,0.013,337.4
07,2022-08-26T10:30:00,1500.0,42.79,6.0312,-0.023,0.019,-0.003,45.0,46.0,43.0,12.9,1504.0,49.6,0.1,1.0,1475.027,13.11,0.029,309.6
07,2022-08-26T11:00:00,1500.0,42.79,6.0312,-0.007,0.032,0.006,42.0,48.0,48.0,12.9,1504.0,47.3,-0.1,0.8,1475.021,13.11,0.032,347.7
07,2022-08-26T11:30:00,1500.0,42.79,6.0312,-0.005,0.023,0.004,45.0,44.0,43.0,12.9,1504.0,43.7,0.2,0.7,1474.99,13.11,0.023,347.7
07,2022-08-26T12:00:00,1500.0,42.79,6.0312,-0.009,0.012,-0.005,45.0,45.0,42.0,12.9,1504.0,48.6,0.0,0.8,1474.981,13.11,0.015,323.1
07,2022-08-26T12:30:00,1500.0,42.79,6.0312,-0.004,0.016,0.014,45.0,46.0,45.0,12.9,1504.0,54.7,-0.2,0.8,1474.957,13.11,0.016,346.0
07,2022-08-26T13:00:00,1500.0,42.79,6.0312,-0.003,0.015,0.002,44.0,47.0,48.0,12.9,1504.0,55.1,0.2,0.8,1474.978,13.11,0.015,348.7
07,2022-08-26T13:30:00,1500.0,42.79,6.0312,-0.006,0.024,0.022,41.0,44.0,47.0,12.9,1504.0,57.3,0.2,0.9,1474.965,13.11,0.024,346.0
07,2022-08-26T14:00:00,1500.0,42.79,6.0312,0.002,0.013,0.002,43.0,44.0,44.0,12.9,1504.0,62.6,-0.1,0.7,1474.953,13.11,0.013,8.7
07,2022-08-26T14:30:00,1500.0,42.79,6.0312,0.014,0.008,0.006,52.0,49.0,46.0,12.9,1504.0,65.0,-0.1,0.7,1474.946,13.11,0.016,60.3
07,2022-08-26T15:00:00,1500.0,42.79,6.0312,0.008,0.012,0.007,45.0,44.0,45.0,12.9,1504.0,62.2,0.2,0.8,1474.999,13.11,0.014,33.7
07,2022-08-26T15:30:00,1500.0,42.79,6.0312,0.007,0.012,0.019,43.0,47.0,45.0,12.9,1504.0,66.3,-0.1,0.7,1475.01,13.11,0.013,30.3
07,2022-08-26T16:00:00,1500.0,42.79,6.0312,0.01,0.016,0.004,44.0,46.0,49.0,12.9,1504.0,66.7,0.1,0.7,1475.07,13.11,0.018,32.0
07,2022-08-26T16:30:00,1500.0,42.79,6.0312,0.016,0.0,0.022,46.0,46.0,49.0,13.0,1504.0,65.5,0.2,0.9,1475.086,13.11,0.016,90.0
07,2022-08-26T17:00:00,1500.0,42.79,6.0312,0.011,0.01,0.015,44.0,47.0,46.0,12.9,1504.0,64.4,-0.1,0.8,1475.116,13.11,0.014,47.7
07,2022-08-26T17:30:00,1500.0,42.79,6.0312,0.008,0.006,0.02,44.0,50.0,44.0,12.9,1504.0,61.8,0.0,1.0,1475.148,13.11,0.01,53.1
07,2022-08-26T18:00:00,1500.0,42.79,6.0312,0.015,0.011,0.02,45.0,46.0,44.0,12.9,1504.0,60.6,0.0,0.7,1475.149,13.11,0.018,53.7
07,2022-08-26T18:30:00,1500.0,42.79,6.0312,0.004,0.0,0.0,42.0,46.0,44.0,12.9,1504.0,60.4,0.2,0.9,1475.18,13.1,0.004,90.0
07,2022-08-26T19:00:00,1500.0,42.79,6.0312,-0.002,-0.005,0.01,46.0,42.0,46.0,12.9,1504.0,61.3,-0.1,0.9,1475.161,13.1,0.005,201.8
07,2022-08-26T19:30:00,1500.0,42.79,6.0312,0.015,-0.001,0.012,46.0,43.0,44.0,12.9,1504.0,62.1,0.2,1.0,1475.167,13.1,0.015,93.8
07,2022-08-26T20:00:00,1500.0,42.79,6.0312,-0.01,0.0,0.008,43.0,43.0,44.0,12.9,1504.0,66.0,0.0,1.0,1475.176,13.1,0.01,270.0
07,2022-08-26T20:30:00,1500.0,42.79,6.0312,-0.018,-0.009,0.001,50.0,48.0,45.0,12.9,1504.0,66.0,-0.1,1.0,1475.168,13.1,0.02,243.4
07,2022-08-26T21:00:00,1500.0,42.79,6.0312,-0.013,0.0,-0.004,50.0,45.0,46.0,12.9,1504.0,66.4,0.1,1.0,1475.17,13.11,0.013,270.0
07,2022-08-26T21:30:00,1500.0,42.79,6.0312,-0.012,-0.001,0.009,45.0,45.0,45.0,12.9,1504.0,66.5,0.2,0.8,1475.143,13.11,0.012,265.2
07,2022-08-26T22:00:00,1500.0,42.79,6.0312,-0.014,0.007,0.006,44.0,46.0,43.0,12.9,1504.0,66.4,-0.1,1.1,1475.117,13.11,0.015,296.6
07,2022-08-26T22:30:00,1500.0,42.79,6.0312,-0.019,0.008,0.001,45.0,47.0,46.0,12.9,1504.0,60.0,0.1,0.9,1475.117,13.11,0.02,292.8
07,2022-08-26T23:00:00,1500.0,42.79,6.0312,-0.017,0.012,0.005,45.0,48.0,45.0,12.9,1504.0,60.5,0.2,0.7,1475.055,13.11,0.02,305.2
